�N����,����,�~����,�C��,���x,�C��,����,���ϕ���,�ő�u�ԕ���,�ő厞����,���˗�,�I�_���x,�n�����x,�ő啗���N��,DTYPE
"23/12/01","00:10",0.0,5.3,85.5,1013.5,320.4,3.4,5.1,331.6,0.00,3.1,10.0,"00:06:40",1
"23/12/01","00:20",0.0,5.4,85.7,1013.5,324.3,3.1,4.8,326.9,0.00,3.2,10.0,"00:18:26",1
"23/12/01","00:30",0.0,5.4,85.9,1013.3,320.8,3.1,4.7,330.8,0.00,3.3,9.8,"00:21:30",1
"23/12/01","00:40",0.0,5.5,86.0,1013.0,316.6,3.0,4.9,331.3,0.00,3.4,9.8,"00:33:10",1
"23/12/01","00:50",0.0,5.5,85.9,1013.0,321.1,2.7,4.1,311.9,0.00,3.4,10.1,"00:40:08",1
"23/12/01","01:00",0.0,5.6,85.8,1013.0,313.3,3.1,5.4,330.3,0.00,3.5,10.0,"00:59:28",1
"23/12/01","01:10",0.0,5.7,85.4,1013.0,316.0,3.6,6.2,341.0,0.00,3.5,9.9,"01:06:36",1
"23/12/01","01:20",0.0,5.8,84.9,1013.3,308.7,3.4,5.2,302.1,0.00,3.5,9.9,"01:11:04",1
"23/12/01","01:30",0.0,5.7,84.5,1013.5,304.1,3.0,4.5,322.5,0.00,3.3,9.6,"01:28:24",1
"23/12/01","01:40",0.0,5.6,84.4,1013.5,318.1,3.4,5.2,330.1,0.00,3.2,9.8,"01:31:00",1
"23/12/01","01:50",0.0,5.5,84.4,1013.5,315.4,3.4,5.7,330.7,0.00,3.1,9.8,"01:45:50",1
"23/12/01","02:00",0.0,5.4,84.5,1013.3,311.1,3.1,6.2,308.6,0.00,3.0,9.7,"01:52:04",1
"23/12/01","02:10",0.0,5.3,84.8,1013.0,313.1,3.1,4.3,309.0,0.00,3.0,9.9,"02:07:54",1
"23/12/01","02:20",0.0,5.3,85.1,1013.0,309.4,3.5,5.6,290.8,0.00,3.0,9.8,"02:17:42",1
"23/12/01","02:30",0.0,5.1,85.2,1013.3,311.0,3.1,4.7,317.2,0.00,2.9,9.8,"02:20:18",1
"23/12/01","02:40",0.0,4.8,85.4,1012.6,298.1,2.6,3.6,312.4,0.00,2.6,9.7,"02:30:08",1
"23/12/01","02:50",0.0,4.6,85.8,1012.6,300.4,2.2,3.2,324.7,0.00,2.5,9.6,"02:41:14",1
"23/12/01","03:00",0.0,4.7,86.1,1012.6,276.2,1.1,2.1,293.7,0.00,2.6,9.8,"02:52:10",1
"23/12/01","03:10",0.0,4.2,86.3,1012.6,306.0,1.2,1.8,322.1,0.00,2.2,9.7,"03:09:34",1
"23/12/01","03:20",0.0,3.3,87.0,1012.3,328.1,1.7,2.5,326.4,0.00,1.4,9.6,"03:13:04",1
"23/12/01","03:30",0.0,2.7,87.6,1011.9,312.9,1.5,2.4,325.4,0.00,0.9,9.8,"03:24:34",1
"23/12/01","03:40",0.0,2.7,88.4,1011.6,322.4,1.5,2.2,341.7,0.00,1.0,9.7,"03:36:22",1
"23/12/01","03:50",0.0,2.4,89.0,1011.6,321.0,1.3,1.9,318.3,0.00,0.8,9.6,"03:40:16",1
"23/12/01","04:00",0.0,2.2,89.7,1011.6,315.2,1.5,1.9,318.6,0.00,0.7,9.5,"03:55:52",1
"23/12/01","04:10",0.0,2.1,90.3,1011.4,319.2,1.2,1.7,312.2,0.00,0.7,9.5,"04:00:40",1
"23/12/01","04:20",0.0,2.1,90.7,1011.4,312.2,1.5,2.1,339.3,0.00,0.8,9.5,"04:13:46",1
"23/12/01","04:30",0.0,1.7,91.2,1011.4,305.2,0.8,1.7,322.9,0.00,0.5,9.5,"04:26:24",1
"23/12/01","04:40",0.0,1.5,91.8,1012.1,292.6,1.2,2.0,304.1,0.00,0.4,9.2,"04:32:00",1
"23/12/01","04:50",0.0,1.2,92.2,1012.1,298.0,1.0,1.8,315.9,0.00,0.1,9.4,"04:48:32",1
"23/12/01","05:00",0.0,1.3,92.7,1011.6,326.1,1.8,2.4,332.7,0.00,0.3,9.2,"04:58:32",1
"23/12/01","05:10",0.0,1.3,92.9,1011.9,311.4,1.5,2.2,317.0,0.00,0.3,9.2,"05:00:56",1
"23/12/01","05:20",0.0,1.0,93.3,1011.6,281.0,1.0,1.4,305.0,0.00,0.1,9.2,"05:17:04",1
"23/12/01","05:30",0.0,1.8,94.0,1011.9,323.4,2.0,4.4,334.2,0.00,1.0,9.2,"05:28:32",1
"23/12/01","05:40",0.0,2.3,94.1,1011.9,325.4,2.6,3.5,318.6,0.00,1.5,9.1,"05:39:56",1
"23/12/01","05:50",0.0,2.6,94.2,1011.9,290.8,2.1,3.4,306.7,0.00,1.8,9.0,"05:42:56",1
"23/12/01","06:00",0.0,2.5,94.4,1011.9,292.4,2.0,3.4,327.6,0.00,1.7,9.1,"05:58:58",1
"23/12/01","06:10",0.0,2.5,94.6,1011.9,300.7,2.1,3.6,325.8,0.00,1.8,9.1,"06:03:22",1
"23/12/01","06:20",0.0,2.7,94.8,1011.9,304.9,2.3,3.7,330.8,0.00,2.0,8.9,"06:16:32",1
"23/12/01","06:30",0.0,2.5,94.9,1012.3,287.2,1.5,2.5,309.2,0.00,1.8,8.8,"06:22:00",1
"23/12/01","06:40",0.0,2.4,95.1,1012.1,310.6,2.1,3.3,316.4,0.00,1.7,8.9,"06:37:48",1
"23/12/01","06:50",0.0,2.1,95.2,1012.3,312.3,1.1,2.7,333.0,0.00,1.5,8.8,"06:41:20",1
"23/12/01","07:00",0.0,2.1,95.5,1012.1,306.5,1.7,2.8,311.9,0.00,1.5,8.9,"06:52:44",1
"23/12/01","07:10",0.0,2.1,95.5,1012.1,301.7,1.2,3.3,335.5,0.00,1.5,8.8,"07:04:48",1
"23/12/01","07:20",0.0,1.9,95.6,1012.3,267.2,0.6,1.4,267.9,0.00,1.3,8.8,"07:18:46",1
"23/12/01","07:30",0.0,1.7,95.8,1012.3,278.5,0.8,1.1,284.9,0.01,1.1,8.9,"07:24:20",1
"23/12/01","07:40",0.0,2.2,96.0,1012.1,227.3,0.3,0.8,247.2,0.03,1.7,8.8,"07:30:10",1
"23/12/01","07:50",0.0,3.0,96.0,1012.8,263.8,0.8,1.9,331.5,0.06,2.5,8.8,"07:49:44",1
"23/12/01","08:00",0.0,4.1,95.7,1012.6,324.8,2.2,3.6,322.9,0.08,3.5,8.7,"07:59:28",1
"23/12/01","08:10",0.0,4.8,95.4,1012.8,317.2,2.3,3.5,322.1,0.12,4.2,8.7,"08:04:16",1
"23/12/01","08:20",0.0,5.3,94.7,1013.0,318.0,2.2,3.4,307.5,0.10,4.6,8.6,"08:16:32",1
"23/12/01","08:30",0.0,5.8,94.1,1013.0,284.1,2.0,3.2,261.0,0.18,5.0,8.6,"08:25:36",1
"23/12/01","08:40",0.0,6.2,93.2,1013.0,306.7,1.6,2.7,270.5,0.18,5.2,8.7,"08:30:48",1
"23/12/01","08:50",0.0,6.4,91.8,1013.8,281.2,1.3,2.4,262.1,0.22,5.2,8.9,"08:42:08",1
"23/12/01","09:00",0.0,6.8,90.0,1014.2,230.6,1.0,2.0,117.2,0.24,5.3,8.7,"08:57:36",1
"23/12/01","09:10",0.0,6.7,87.9,1014.5,274.4,0.7,1.6,91.1,0.15,4.9,8.8,"09:02:12",1
"23/12/01","09:20",0.0,6.9,85.9,1014.5,257.9,0.8,2.4,234.2,0.23,4.7,8.9,"09:18:16",1
"23/12/01","09:30",0.0,7.4,83.9,1014.5,48.6,0.7,2.0,109.3,0.31,4.9,8.9,"09:23:52",1
"23/12/01","09:40",0.0,7.9,81.6,1014.5,184.3,0.7,2.2,226.1,0.32,5.0,9.0,"09:36:48",1
"23/12/01","09:50",0.0,7.9,80.1,1014.0,51.5,0.7,2.1,109.4,0.29,4.7,9.0,"09:40:24",1
"23/12/01","10:00",0.0,8.5,78.9,1014.2,258.7,0.6,2.4,240.2,0.31,5.1,9.0,"09:59:52",1
"23/12/01","10:10",0.0,8.7,77.5,1013.8,239.6,1.2,2.6,230.1,0.39,5.0,9.0,"10:01:50",1
"23/12/01","10:20",0.0,9.2,75.6,1013.8,238.4,0.8,1.3,231.2,0.41,5.2,9.1,"10:14:56",1
"23/12/01","10:30",0.0,9.3,73.8,1013.8,249.0,1.6,3.5,242.8,0.42,4.9,9.2,"10:22:20",1
"23/12/01","10:40",0.0,9.9,71.3,1013.5,312.1,1.0,2.0,309.3,0.43,5.0,9.3,"10:38:24",1
"23/12/01","10:50",0.0,10.5,69.2,1013.3,230.3,1.0,2.4,238.8,0.44,5.1,9.3,"10:42:40",1
"23/12/01","11:00",0.0,11.0,66.1,1013.0,347.8,0.7,2.1,349.9,0.45,5.0,9.3,"10:58:24",1
"23/12/01","11:10",0.0,10.4,61.5,1013.0,224.3,2.2,5.8,232.6,0.46,3.4,9.6,"11:07:12",1
"23/12/01","11:20",0.0,10.4,58.2,1012.8,244.8,3.2,6.5,236.0,0.39,2.6,9.7,"11:13:16",1
"23/12/01","11:30",0.0,10.6,55.3,1012.3,259.5,2.5,5.0,218.7,0.46,2.1,9.7,"11:21:14",1
"23/12/01","11:40",0.0,11.2,54.0,1012.3,260.8,2.1,4.8,256.0,0.48,2.3,9.7,"11:35:04",1
"23/12/01","11:50",0.0,11.2,54.1,1012.1,270.6,2.2,5.1,195.9,0.48,2.3,9.7,"11:48:00",1
"23/12/01","12:00",0.0,11.3,53.4,1011.9,280.1,2.2,4.0,314.8,0.48,2.2,10.0,"11:53:26",1
"23/12/01","12:10",0.0,11.3,52.7,1011.6,281.2,2.7,5.7,345.5,0.48,2.0,10.0,"12:00:32",1
"23/12/01","12:20",0.0,11.6,51.4,1011.2,308.4,2.1,4.2,315.4,0.48,2.0,10.2,"12:14:34",1
"23/12/01","12:30",0.0,12.1,48.8,1011.6,282.8,2.0,4.4,255.3,0.47,1.7,10.1,"12:29:04",1
"23/12/01","12:40",0.0,11.9,49.1,1010.9,277.1,2.5,6.6,342.2,0.46,1.6,10.2,"12:34:32",1
"23/12/01","12:50",0.0,12.3,46.7,1010.9,296.8,2.2,4.8,338.1,0.46,1.3,10.4,"12:46:24",1
"23/12/01","13:00",0.0,12.3,45.6,1011.4,304.1,2.5,4.9,309.4,0.45,0.9,10.3,"12:53:20",1
"23/12/01","13:10",0.0,12.3,46.1,1010.9,264.4,3.1,6.4,246.5,0.44,1.1,10.6,"13:01:44",1
"23/12/01","13:20",0.0,12.6,46.1,1010.9,278.3,2.3,4.7,202.6,0.44,1.4,10.5,"13:15:56",1
"23/12/01","13:30",0.0,12.7,46.2,1010.9,288.7,2.3,5.6,225.4,0.46,1.5,10.5,"13:20:02",1
"23/12/01","13:40",0.0,12.8,48.0,1010.7,244.1,2.8,4.8,220.8,0.45,2.1,10.7,"13:38:16",1
"23/12/01","13:50",0.0,13.0,48.9,1010.7,254.2,2.5,5.2,230.0,0.41,2.6,10.9,"13:40:56",1
"23/12/01","14:00",0.0,12.6,46.2,1010.9,297.6,2.0,4.0,332.6,0.24,1.4,10.7,"13:56:58",1
"23/12/01","14:10",0.0,11.8,48.4,1010.7,253.7,2.3,4.4,231.2,0.11,1.3,10.8,"14:08:38",1
"23/12/01","14:20",0.0,11.5,49.6,1010.7,244.7,2.7,7.7,212.1,0.07,1.4,10.9,"14:16:56",1
"23/12/01","14:30",0.0,11.3,50.7,1010.7,245.6,3.4,6.7,232.5,0.05,1.5,10.7,"14:21:08",1
"23/12/01","14:40",0.0,11.2,51.0,1010.7,256.4,3.0,5.5,253.4,0.05,1.5,10.9,"14:33:44",1
"23/12/01","14:50",0.0,11.8,50.3,1010.7,251.5,2.7,6.4,214.1,0.17,1.8,10.8,"14:45:06",1
"23/12/01","15:00",0.0,12.6,49.5,1010.7,257.9,2.2,7.8,209.1,0.27,2.4,10.9,"14:53:58",1
"23/12/01","15:10",0.0,12.4,48.1,1010.7,257.2,3.0,6.6,236.3,0.24,1.8,11.0,"15:04:50",1
"23/12/01","15:20",0.0,11.9,49.3,1010.7,235.9,4.0,9.7,209.5,0.20,1.7,10.9,"15:15:56",1
"23/12/01","15:30",0.0,12.0,48.0,1010.7,275.4,2.2,5.9,325.6,0.15,1.4,11.1,"15:29:18",1
"23/12/01","15:40",0.0,11.6,49.0,1010.9,267.3,2.7,5.5,260.1,0.13,1.3,11.1,"15:36:02",1
"23/12/01","15:50",0.0,11.3,51.0,1011.2,264.3,2.5,4.9,248.9,0.09,1.6,11.0,"15:45:38",1
"23/12/01","16:00",0.0,10.9,52.6,1011.2,252.2,3.0,6.4,228.7,0.06,1.6,11.2,"15:53:52",1
"23/12/01","16:10",0.0,10.2,54.0,1011.2,269.2,2.8,7.2,234.7,0.01,1.4,11.0,"16:07:24",1
"23/12/01","16:20",0.0,9.8,55.4,1011.4,273.2,2.5,4.9,244.7,0.00,1.3,11.0,"16:11:12",1
"23/12/01","16:30",0.0,9.5,56.1,1011.2,286.6,1.6,2.9,260.2,0.00,1.2,10.8,"16:20:08",1
"23/12/01","16:40",0.0,9.3,56.5,1010.9,274.8,2.1,4.4,239.9,0.00,1.1,11.1,"16:38:16",1
"23/12/01","16:50",0.0,9.2,55.7,1011.4,275.9,2.0,4.2,260.8,0.00,0.9,10.8,"16:40:56",1
"23/12/01","17:00",0.0,9.2,54.2,1011.4,274.2,2.6,4.7,312.8,0.00,0.5,10.8,"16:50:40",1
"23/12/01","17:10",0.0,9.0,54.2,1011.4,286.4,2.2,4.7,352.2,0.00,0.3,11.1,"17:03:20",1
"23/12/01","17:20",0.0,8.9,54.4,1011.6,275.4,2.1,5.6,234.4,0.00,0.2,10.7,"17:12:40",1
"23/12/01","17:30",0.0,8.8,54.0,1011.6,270.1,2.5,5.9,241.7,0.00,0.1,10.9,"17:24:50",1
"23/12/01","17:40",0.0,8.7,54.0,1012.1,269.6,2.5,4.7,240.8,0.00,0.0,10.7,"17:30:32",1
"23/12/01","17:50",0.0,8.2,55.5,1011.6,287.4,2.1,3.4,286.6,0.00,-0.1,10.7,"17:47:44",1
"23/12/01","18:00",0.0,8.0,56.5,1011.9,284.9,2.3,4.2,258.3,0.00,-0.1,10.8,"17:52:48",1
"23/12/01","18:10",0.0,7.7,57.6,1011.9,282.1,2.1,4.1,264.7,0.00,-0.1,10.5,"18:06:48",1
"23/12/01","18:20",0.0,7.3,58.5,1012.1,293.3,1.6,2.5,258.0,0.00,-0.3,10.6,"18:17:12",1
"23/12/01","18:30",0.0,6.7,61.5,1011.6,302.9,1.5,2.9,311.6,0.00,-0.1,10.4,"18:29:42",1
"23/12/01","18:40",0.0,5.9,66.6,1012.6,321.8,2.0,2.8,341.6,0.00,0.2,10.4,"18:30:24",1
"23/12/01","18:50",0.0,5.2,69.9,1012.1,310.5,1.6,2.7,316.5,0.00,0.2,10.5,"18:49:26",1
"23/12/01","19:00",0.0,4.7,72.1,1012.1,322.3,2.0,2.7,322.3,0.00,0.1,10.1,"18:56:42",1
"23/12/01","19:10",0.0,4.4,73.6,1012.1,293.0,1.3,2.1,316.8,0.00,0.1,10.0,"19:04:22",1
"23/12/01","19:20",0.0,4.3,74.5,1011.9,307.8,1.5,1.6,297.3,0.00,0.2,10.2,"19:11:06",1
"23/12/01","19:30",0.0,4.3,75.6,1011.9,303.9,1.8,2.8,309.2,0.00,0.4,10.2,"19:28:36",1
"23/12/01","19:40",0.0,4.3,76.4,1011.9,307.3,1.8,2.1,324.3,0.00,0.6,10.1,"19:39:14",1
"23/12/01","19:50",0.0,4.0,77.0,1011.9,317.0,1.2,1.8,328.7,0.00,0.4,10.2,"19:40:44",1
"23/12/01","20:00",0.0,3.7,77.8,1012.1,318.3,0.7,1.2,321.2,0.00,0.2,10.0,"19:51:00",1
"23/12/01","20:10",0.0,3.1,78.4,1011.9,311.7,0.6,1.2,312.3,0.00,-0.2,10.0,"20:05:52",1
"23/12/01","20:20",0.0,2.8,79.4,1012.1,288.9,1.1,1.6,311.2,0.00,-0.4,9.8,"20:15:00",1
"23/12/01","20:30",0.0,2.8,80.2,1012.1,319.3,1.2,2.0,338.3,0.00,-0.2,9.9,"20:29:52",1
"23/12/01","20:40",0.0,2.7,80.9,1012.1,296.2,1.2,2.2,339.7,0.00,-0.2,10.0,"20:31:20",1
"23/12/01","20:50",0.0,2.6,81.9,1011.9,299.7,1.3,2.0,309.5,0.00,-0.1,9.8,"20:45:22",1
"23/12/01","21:00",0.0,2.7,83.0,1012.1,315.4,1.2,2.2,327.6,0.00,0.1,9.5,"20:53:52",1
"23/12/01","21:10",0.0,2.5,84.0,1012.3,309.8,1.0,2.0,336.6,0.00,0.1,9.5,"21:04:02",1
"23/12/01","21:20",0.0,2.3,85.0,1012.1,298.7,1.2,1.7,325.8,0.00,0.1,9.5,"21:10:42",1
"23/12/01","21:30",0.0,2.4,86.1,1012.1,306.2,1.6,2.4,306.3,0.00,0.4,9.7,"21:27:52",1
"23/12/01","21:40",0.0,2.4,86.6,1012.3,316.7,1.6,3.1,337.0,0.00,0.4,9.5,"21:32:42",1
"23/12/01","21:50",0.0,2.4,87.1,1012.6,323.3,1.5,2.5,345.6,0.00,0.5,9.5,"21:48:16",1
"23/12/01","22:00",0.0,2.4,87.2,1012.8,287.2,0.8,1.7,245.7,0.00,0.5,9.4,"21:59:38",1
"23/12/01","22:10",0.0,2.2,87.5,1012.6,303.3,1.1,2.0,326.2,0.00,0.4,9.5,"22:08:08",1
"23/12/01","22:20",0.0,2.2,87.7,1012.8,333.4,1.5,2.4,322.7,0.00,0.4,9.4,"22:19:58",1
"23/12/01","22:30",0.0,2.3,87.9,1013.0,340.1,1.5,2.2,305.7,0.00,0.5,9.3,"22:20:32",1
"23/12/01","22:40",0.0,2.7,87.7,1013.3,356.3,1.2,2.5,338.6,0.00,0.9,9.3,"22:36:40",1
"23/12/01","22:50",0.0,2.7,87.3,1013.3,307.0,1.5,2.4,325.4,0.00,0.8,9.2,"22:42:14",1
"23/12/01","23:00",0.0,2.7,86.8,1013.3,303.5,1.6,2.2,320.9,0.00,0.8,9.3,"22:52:44",1
"23/12/01","23:10",0.0,2.5,86.4,1013.3,303.5,1.5,2.0,341.0,0.00,0.5,9.1,"23:08:50",1
"23/12/01","23:20",0.0,2.3,86.2,1013.0,310.8,1.5,2.2,337.0,0.00,0.3,9.1,"23:14:12",1
"23/12/01","23:30",0.0,2.1,86.2,1013.0,302.7,1.3,2.2,316.2,0.00,0.1,9.1,"23:22:50",1
"23/12/01","23:40",0.0,1.9,86.4,1013.3,308.0,1.5,2.0,315.8,0.00,-0.1,9.0,"23:30:32",1
"23/12/01","23:50",0.0,1.6,86.6,1013.0,308.5,1.1,1.8,326.1,0.00,-0.3,9.1,"23:49:52",1
"23/12/01","24:00",0.0,1.7,87.0,1013.3,326.4,1.6,2.5,327.4,0.00,-0.2,9.0,"23:51:28",1
